Вернуться в каталог

STARLINK-32484

АктивенСвязьVLEO
NORAD 62160·PAYLOAD·🇺🇸 United States

Запущен Nov 30, 2024 с Cape Canaveral Space Force Station

Loading…

Ближайшие Пролёты (ближайшие 24 часа)

TLE

СвежийSource: CelesTrak SupGP

Эпоха: Sep 15, 2026, 03:05 UTC

1 62160C 24224X   26258.12895833  .00004193  00000+0  15191-3 0  2585
2 62160  43.0008 168.5336 0001386 279.6999 272.9795 15.27567214    15

Отслеживайте STARLINK-32484 в реальном времени с AllMySat

Download on the App Store